Regional Weather Roundup
Issued by NWS

Home | Current Version | Previous Version | Text Only | Print | Product List | Glossary On
Versions: 1 2 3 4 5 6 7 8 9 10 11 12 13 14 15 16 17 18 19 20 21 22 23 24 25 26 27 28 29 30 31 32 33 34 35 36 37 38 39 40 41 42 43 44 45 46 47 48 49 50
000
ASUS43 KTOP 251308
RWRKS

WEATHER ROUNDUP FOR KANSAS
NATIONAL WEATHER SERVICE GOODLAND KS
800 AM CDT MON SEP 25 2017

NOTE:  "FAIR" INDICATES FEW OR NO CLOUDS BELOW 12,000 FEET WITH NO
SIGNIFICANT WEATHER AND/OR OBSTRUCTIONS TO VISIBILITY.

KSZ001>006-013>018-027>032-041>047-251400-
NORTHWEST KANSAS

CITY           SKY/WX    TMP DP  RH WIND       PRES   REMARKS
GOODLAND       HVY RAIN  48  48 100 N8        30.06R FOG
HAYS           CLOUDY    61  61 100 NW9       29.94R THUNDER FOG
HILL CITY      RAIN      54  54 100 N12       29.99R
RUSSELL        LGT RAIN  64  63  96 NE6       29.90S
$$

KSZ061>065-074>080-084>089-251400-
SOUTHWEST KANSAS

CITY           SKY/WX    TMP DP  RH WIND       PRES   REMARKS
DODGE CITY     TSTM      62  61  96 NW12G23   29.90R FOG
ELKHART          N/A     56  59 100 N2          N/A
GARDEN CITY    CLOUDY    57  55  93 N17       29.94R
GREAT BEND     CLOUDY    70  64  83 SE9       29.89S
LIBERAL        CLOUDY    60  59  96 MISG        N/A
PRATT          CLOUDY    68  63  85 SE8       29.90R THUNDER
$$

KSZ066>073-081>083-090>101-251400-
SOUTHEAST KANSAS

CITY           SKY/WX    TMP DP  RH WIND       PRES   REMARKS
CHANUTE        PTCLDY    68  64  87 SE7       29.95R
COFFEYVILLE    CLEAR     68  65  90 MISG      29.94R
HUTCHINSON     MOCLDY    70  65  84 S8        29.89R
MEDICINE LODGE   N/A     69  65  86 S14G21    29.90R
NEWTON         CLOUDY    67  64  90 SE9       29.92S
PARSONS        CLEAR     69  64  84 SE3       29.96R
WICHITA INTL   MOCLDY    70  66  87 S8        29.90S
WICHITA JABRA  CLOUDY    71  66  84 S7        29.91R
WICHITA MCCONL CLOUDY    71  64  77 S8        29.91R
WINFIELD       CLEAR     71  67  87 SE7       29.93R
$$

KSZ007>012-019>026-033>040-048>060-102>105-251400-
NORTHEAST KANSAS

CITY           SKY/WX    TMP DP  RH WIND       PRES   REMARKS
CONCORDIA      TSTM      62  62 100 CALM      29.93R FOG
EMPORIA        CLEAR     68  64  87 S13       29.93R
LAWRENCE       CLEAR     68  66  93 E5        29.94R
MANHATTAN      CLOUDY    72  65  78 S3        29.90S
MARYSVILLE     FOG       64  64 100 N6        29.93R VSB 1/4
OLATHE IND     PTCLDY    69  64  84 S8        29.95S
OLATHE EXE     CLEAR     65  65 100 S5        29.95S
SALINA         MOCLDY    71  67  87 NW8       29.91R
TOPEKA BILLARD CLEAR     68  67  96 CALM      29.93R
TOPEKA FORBES  CLEAR     70  67  90 S5        29.93R
$$




USA.gov is the U.S. government's official web portal to all federal, state and local government web resources and services.